Weather History for CYEN - May, 2013

Change the Weather History Date:

Tuesday, May 21, 2013

  Actual Average Record
Temperature  
Mean Temperature 56 °F -  
Max Temperature 68 °F 63 °F 80 °F (2002)
Min Temperature 43 °F 39 °F 33 °F (2001)
Degree Days  
Heating Degree Days 10    
Growing Degree Days 6 (Base 50)    
Moisture  
Dew Point 34 °F    
Average Humidity 46    
Maximum Humidity 76    
Minimum Humidity 11    
Precipitation  
Precipitation 0.00 in - - ()
Sea Level Pressure  
Sea Level Pressure 30.05 in    
Wind  
Wind Speed 12 mph ()    
Max Wind Speed 25 mph    
Max Gust Speed 34 mph    
Visibility 15.0 miles    
Events      
Averages and records for this station are not official NWS values.
T = Trace of Precipitation, MM = Missing Value Source: Averaged Metar Reports

Daily Weather History Graph

Daily Weather History Graph

Search for Another Location

Airport or City:

Trip Planner

Search our weather history database for the weather conditions in past years. The results will help you decide how hot, cold, wet, or windy it might be!

Date:

Astronomy

May. 21, 2013 Rise Set
Actual Time 5:01 AM CST 8:36 PM CST
Civil Twilight 4:21 AM CST 9:16 PM CST
Nautical Twilight 3:28 AM CST 10:10 PM CST
Astronomical Twilight 2:13 AM CST 11:26 PM CST
Moon 4:34 PM CST (5/21) 2:51 AM CST (5/21)
Length of Visible Light 16h 55m
Length of Day
15h 35m
Waxing Gibbous, 84% of the Moon is Illuminated
May 21
Waxing Gibbous
May 24
Full
May 31
Last Quarter
Jun 8
New
Jun 16
First Quarter

Hourly Weather History & Observations

Time (CST) Temp. Windchill Dew Point Humidity Pressure Visibility Wind Dir Wind Speed Gust Speed Precip Events Conditions
12:00 AM 50 °F - 37 °F 49% 30.04 in 15 mi NNE 9.2 mph - -   Mostly Cloudy
12:00 AM 50.0 °F - 37.4 °F 62% 30.04 in 15.0 mi NNE 9.2 mph - N/A   Mostly Cloudy
1:00 AM 50.0 °F - 35.6 °F 58% 30.04 in 15.0 mi NE 11.5 mph - N/A   Overcast
2:00 AM 50.0 °F - 35.6 °F 58% 30.04 in 15.0 mi NNE 10.4 mph - N/A   Partly Cloudy
3:00 AM 46.4 °F 42.4 °F 37.4 °F 71% 30.04 in 15.0 mi North 8.1 mph - N/A   Partly Cloudy
4:00 AM 46.4 °F 41.5 °F 37.4 °F 71% 30.05 in 15.0 mi North 10.4 mph - N/A   Mostly Cloudy
5:00 AM 44.6 °F 39.7 °F 37.4 °F 76% 30.06 in 15.0 mi North 9.2 mph - N/A   Mostly Cloudy
6:00 AM 46 °F - 38 °F 67% 30.06 in 15 mi North 9.2 mph - -   Partly Cloudy
6:00 AM 46.4 °F 41.5 °F 39.2 °F 76% 30.06 in 15.0 mi North 10.4 mph - N/A   Scattered Clouds
7:00 AM 50.0 °F - 39.2 °F 66% 30.07 in 15.0 mi North 9.2 mph - N/A   Mostly Cloudy
8:00 AM 53.6 °F - 39.2 °F 58% 30.07 in 15.0 mi North 13.8 mph 19.6 mph N/A   Mostly Cloudy
9:00 AM 57.2 °F - 41.0 °F 55% 30.06 in 15.0 mi North 17.3 mph - N/A   Mostly Cloudy
10:00 AM 59.0 °F - 39.2 °F 48% 30.05 in 15.0 mi NNE 19.6 mph - N/A   Scattered Clouds
11:00 AM 60.8 °F - 37.4 °F 42% 30.05 in 15.0 mi NNE 16.1 mph - N/A   Partly Cloudy
12:00 PM 62 °F - 37 °F 28% 30.04 in 15 mi NE 17.3 mph - -   Scattered Clouds
12:00 PM 62.6 °F - 37.4 °F 39% 30.04 in 15.0 mi NE 18.4 mph - N/A   Partly Cloudy
1:00 PM 64.4 °F - 32.0 °F 30% 30.04 in 15.0 mi NE 19.6 mph - N/A   Mostly Cloudy
2:00 PM 66.2 °F - 32.0 °F 28% 30.02 in 15.0 mi ENE 23.0 mph 29.9 mph N/A   Scattered Clouds
3:00 PM 66.2 °F - 24.8 °F 21% 30.02 in 15.0 mi ENE 23.0 mph - N/A   Partly Cloudy
4:00 PM 68.0 °F - 23.0 °F 18% 30.02 in 15.0 mi ENE 23.0 mph - N/A   Mostly Cloudy
5:00 PM 68.0 °F - 24.8 °F 20% 30.01 in 15.0 mi ENE 21.9 mph - N/A   Scattered Clouds
6:00 PM 67 °F - 26 °F 11% 30.02 in 15 mi ENE 25.3 mph - -   Scattered Clouds
6:00 PM 66.2 °F - 26.6 °F 23% 30.02 in 15.0 mi ENE 24.2 mph 34.5 mph N/A   Scattered Clouds
7:00 PM 64.4 °F - 26.6 °F 24% 30.04 in 15.0 mi ENE 19.6 mph - N/A   Scattered Clouds
8:00 PM 62.6 °F - 28.4 °F 27% 30.05 in 15.0 mi East 10.4 mph - N/A   Mostly Cloudy
9:00 PM 55.4 °F - 35.6 °F 47% 30.07 in 15.0 mi ENE 9.2 mph - N/A   Mostly Cloudy
10:00 PM 53.6 °F - 37.4 °F 54% 30.08 in 15.0 mi NE 8.1 mph - N/A   Mostly Cloudy
11:00 PM 50.0 °F - 37.4 °F 62% 30.09 in 15.0 mi NE 11.5 mph - N/A   Scattered Clouds